Wind_Speed
28 29 31 32 33 35 35 34 32 31 29 27 24 21 21 22 22 21 19 18 17 18 18 17 17 18 18 18 18 18 18 17 15 14 13 13 13 12 12 11 9 8 8 8 9 9 8 8 8 8 8 8 7 8 8 7 7 6 6 6 7 7 7
27 28 29 30 31 33 34 34 33 32 31 31 28 23 21 22 23 23 21 19 18 17 17 18 17 18 18 18 18 19 19 19 17 16 15 14 13 12 12 11 11 9 9 9 9 9 9 8 8 8 8 8 8 8 8 7 7 6 6 7 7 7 7
26 27 27 27 29 31 32 34 34 33 33 33 31 26 23 22 23 25 24 21 20 19 18 18 18 18 18 18 19 19 20 20 19 18 16 14 13 12 12 11 11 10 9 9 9 9 9 8 8 8 9 9 9 9 8 7 7 6 7 7 6 7 7
25 26 25 25 26 28 30 32 33 33 34 34 33 30 28 24 23 25 24 21 20 21 20 19 19 19 19 19 19 18 19 20 20 19 17 16 15 14 13 12 11 11 10 9 9 9 9 9 8 8 9 9 9 9 8 7 7 7 7 7 6 6 7
25 26 26 26 26 27 29 30 32 34 36 36 37 36 34 30 27 25 23 21 20 22 22 21 20 20 20 20 19 18 18 19 19 19 19 18 17 15 14 13 12 11 10 10 9 9 9 9 9 9 9 9 9 9 8 8 8 7 7 7 6 6 6
26 27 26 27 28 28 30 31 33 37 38 38 39 39 35 30 28 26 25 26 25 25 25 24 23 22 21 21 19 18 18 18 18 19 20 20 19 18 16 15 14 12 11 11 10 10 9 9 9 9 9 9 9 9 8 8 8 7 7 7 6 6 6
27 28 27 28 28 29 30 30 30 31 32 35 35 33 31 28 27 26 26 27 27 27 28 28 26 24 23 22 21 20 19 18 18 19 19 20 20 19 18 17 16 14 13 12 11 11 10 9 9 9 9 10 10 9 9 8 9 8 8 7 6 6 6
28 28 28 28 28 28 29 27 26 26 27 29 28 26 27 28 29 29 28 26 24 24 25 26 26 25 24 23 22 21 20 19 18 19 19 20 20 21 20 19 18 16 15 14 13 12 11 10 10 10 10 10 10 11 10 9 9 9 9 9 8 7 7
30 29 28 28 28 28 27 25 24 26 26 25 23 23 25 28 33 35 32 29 26 25 25 25 26 25 24 23 22 21 21 21 20 20 20 21 20 20 21 20 20 19 17 16 14 14 12 11 12 11 11 11 10 11 11 10 10 10 10 10 9 9 8
29 28 28 28 28 27 26 25 23 24 24 24 23 22 21 24 29 30 29 29 29 29 28 27 27 26 26 25 24 23 23 22 22 21 21 21 20 20 20 20 21 21 19 18 17 16 14 13 13 13 13 12 11 11 11 11 11 11 11 11 11 11 10
24 24 25 24 25 23 22 23 23 23 22 22 21 20 18 20 21 21 24 27 30 32 32 30 29 27 27 27 26 27 26 24 23 22 21 21 21 21 21 20 21 21 21 21 20 18 17 16 15 15 14 13 13 12 12 12 12 12 12 11 12 12 11
21 21 20 18 19 20 18 19 21 21 21 20 18 16 17 19 19 19 21 24 28 31 32 31 30 30 29 28 26 27 26 25 24 23 22 21 20 20 20 21 22 22 23 23 22 21 20 19 18 17 16 15 14 14 13 13 13 13 13 13 13 13 12
21 22 21 18 16 15 15 15 16 18 20 20 19 16 17 19 19 18 18 20 24 28 29 30 31 30 29 27 25 25 24 24 24 24 23 21 20 19 19 20 20 21 22 22 23 23 22 21 20 19 18 17 16 15 15 15 14 14 14 14 14 14 14
24 23 20 17 16 15 15 14 13 15 16 16 17 18 19 20 19 19 19 19 21 25 27 27 26 25 25 25 25 24 24 23 24 25 24 21 20 20 19 19 19 19 20 21 22 22 22 22 22 21 20 19 18 17 17 17 17 16 15 15 15 15 15
26 23 16 12 12 13 15 15 14 14 14 12 12 15 18 19 19 20 21 20 19 21 22 21 21 21 22 23 24 24 24 23 23 24 24 24 23 22 21 21 20 20 19 19 19 20 20 21 21 21 21 21 20 20 20 20 19 18 17 17 16 16 16
23 21 15 10 8 8 11 15 14 13 13 12 10 10 13 17 20 21 20 18 17 17 18 19 20 21 22 23 24 25 24 23 22 22 24 25 26 25 24 23 22 21 20 18 18 18 19 20 20 20 20 20 20 20 21 22 21 20 19 19 18 18 18
21 17 14 11 11 12 12 14 14 13 13 12 10 9 9 12 16 17 14 14 15 17 19 20 20 21 22 23 24 24 23 22 23 23 22 23 24 26 26 26 26 24 21 20 19 18 18 19 20 20 19 18 19 20 21 22 22 22 21 21 21 21 20
20 18 15 12 12 14 14 15 16 15 13 11 11 10 10 10 12 13 12 11 12 14 17 17 19 20 20 20 22 22 21 21 22 23 23 23 23 25 26 28 29 28 25 22 21 20 20 20 20 20 21 20 19 19 20 20 20 21 22 22 23 23 23
17 18 16 13 11 11 12 14 15 15 13 12 11 11 11 10 10 10 10 10 10 11 12 14 16 17 16 17 18 18 17 18 19 21 22 22 23 24 25 27 28 28 27 25 23 23 23 23 22 22 22 22 21 20 19 19 19 20 21 22 23 24 24
15 15 14 13 12 10 10 11 12 13 12 12 11 11 10 10 10 10 10 10 10 9 10 12 15 14 15 16 15 13 13 16 18 20 21 22 22 22 21 23 24 25 26 27 26 26 26 25 25 25 24 23 22 20 19 18 18 19 19 20 21 22 24
13 14 13 12 12 11 11 11 11 11 11 10 10 10 9 9 10 11 12 12 12 12 11 12 14 14 16 17 14 11 12 15 18 20 21 22 21 20 19 20 20 21 22 24 26 27 27 27 27 26 26 25 23 21 20 18 18 18 19 19 20 21 23
15 14 13 13 12 11 11 12 12 11 11 10 9 8 7 7 8 9 11 12 13 14 13 14 14 14 15 15 13 13 15 17 20 21 22 22 22 21 20 20 19 18 19 21 23 25 26 26 26 25 26 26 26 25 24 23 22 21 21 21 21 21 22
16 16 15 14 14 13 12 12 12 12 11 10 9 8 7 7 7 7 7 8 9 10 11 12 13 14 15 14 15 17 20 23 24 24 23 23 23 23 23 23 22 21 20 21 23 24 25 25 24 24 24 25 26 27 27 27 27 25 24 23 22 22 22
16 16 17 16 15 14 13 12 13 12 11 10 10 10 9 8 8 7 7 7 6 7 7 8 9 11 13 14 15 18 21 23 25 26 25 24 23 24 24 24 24 25 24 24 24 25 25 25 25 24 25 26 27 29 29 30 30 28 26 25 24 24 24
15 16 16 16 16 15 14 13 14 13 11 10 9 10 10 10 9 8 8 7 7 6 6 6 7 8 8 10 11 13 15 17 19 22 23 24 24 24 24 24 25 27 28 27 27 27 27 26 26 27 28 29 30 31 32 32 32 30 28 27 27 27 27
14 15 16 15 14 14 14 13 14 14 13 11 10 10 11 10 10 9 9 9 8 8 7 7 6 7 7 8 9 10 11 13 15 17 19 21 22 24 25 25 26 28 28 29 29 30 30 30 29 29 30 30 30 30 30 31 31 31 31 31 31 30 30
11 14 16 16 16 16 16 15 14 15 15 13 12 11 12 11 11 11 10 10 11 10 9 9 8 8 8 9 9 10 10 11 13 14 16 19 20 22 25 26 27 27 28 29 30 32 33 33 33 32 33 33 32 30 29 28 28 29 31 33 34 34 33
15 14 15 15 16 18 19 18 18 18 17 17 15 14 15 15 14 14 13 13 14 13 12 12 12 11 11 11 11 11 11 11 12 13 14 16 17 20 22 25 26 28 29 29 31 33 33 34 34 34 35 36 35 34 32 29 28 28 30 32 34 34 34
20 20 20 18 17 18 20 21 22 21 21 20 20 19 19 19 19 18 17 17 17 16 15 15 15 15 15 14 14 13 13 13 14 14 15 15 15 16 18 20 23 26 28 30 31 32 33 34 35 35 36 37 37 35 34 32 31 30 30 31 31 30 30
23 24 24 24 22 21 22 23 24 24 23 23 24 24 23 23 23 22 22 21 20 20 19 19 19 19 18 18 17 17 16 16 16 17 17 17 17 16 16 16 18 20 24 27 30 32 33 35 36 36 37 37 37 36 34 34 33 33 33 33 31 28 26
26 25 26 26 26 25 24 25 27 28 27 26 27 27 27 26 26 26 26 26 25 24 23 23 23 23 22 21 21 20 20 19 19 20 20 19 19 19 18 17 16 17 18 21 24 28 31 33 35 36 37 38 37 36 35 35 34 35 35 34 32 29 27
27 28 29 29 29 29 29 29 29 29 29 29 30 30 30 29 29 29 29 29 28 28 27 27 27 27 26 26 25 25 24 23 22 22 22 22 22 21 20 19 18 18 17 17 19 21 24 27 31 34 36 37 37 37 36 36 36 36 35 34 33 32 30
30 31 31 30 29 30 30 30 29 28 28 29 30 31 32 32 31 31 30 30 30 30 30 31 31 30 30 30 30 30 29 28 26 25 25 24 24 24 23 22 21 20 19 19 19 19 20 22 25 29 33 34 35 35 35 34 34 35 35 34 34 35 33
33 32 30 27 26 26 26 26 26 27 27 28 28 29 30 31 31 31 31 31 32 32 33 34 34 34 34 34 34 34 33 32 31 29 28 28 27 27 27 26 25 24 23 22 21 21 21 21 22 24 28 30 31 32 30 30 30 31 32 34 36 36 34
33 30 27 24 22 21 21 22 24 27 28 28 28 28 28 28 28 29 29 30 31 32 33 34 35 36 36 37 37 37 37 36 35 34 33 32 31 30 30 30 29 28 26 25 24 23 23 22 22 22 24 26 27 29 29 29 29 28 28 31 35 36 34
32 29 26 24 21 19 19 20 23 26 28 28 27 27 27 27 27 28 28 29 30 31 31 32 33 34 35 37 37 38 38 39 39 38 38 36 35 34 34 34 33 32 30 29 28 27 27 26 24 23 24 24 25 26 27 28 29 28 27 28 31 33 33
30 27 25 22 20 20 20 20 21 24 25 26 26 26 26 27 27 28 28 28 29 29 30 30 30 31 33 34 35 36 37 38 39 40 40 40 40 39 39 38 37 36 35 34 32 31 30 29 28 26 26 25 24 25 26 26 27 27 27 28 30 31 32
27 23 22 20 19 20 21 21 20 21 22 22 23 24 25 25 26 27 27 27 27 28 28 28 28 29 29 30 31 32 33 35 37 38 40 41 42 42 43 43 42 40 39 38 37 35 34 33 32 31 29 27 26 26 26 26 27 27 27 29 30 31 31
Wind_Direction
202 204 205 209 211 212 215 219 220 220 223 226 221 214 210 203 200 202 202 203 201 200 204 205 203 202 203 204 206 208 208 210 211 212 213 210 209 209 211 213 213 212 210 208 210 211 209 207 205 205 200 197 199 196 197 203 204 208 209 208 213 217 218
201 203 205 208 209 211 215 218 221 223 224 228 227 224 220 210 203 200 198 202 204 203 203 205 206 205 205 205 206 208 209 210 211 213 214 212 211 212 213 214 214 214 213 211 214 215 214 210 206 210 207 202 204 203 199 203 207 207 207 210 212 215 215
197 200 203 206 207 208 213 217 222 224 225 227 228 227 225 219 209 200 195 198 205 208 205 205 207 206 207 208 207 208 209 211 211 212 214 215 216 217 216 216 215 216 217 215 216 217 217 214 209 211 215 208 205 206 203 206 210 209 208 212 213 215 217
199 200 200 203 206 208 213 218 223 224 225 227 228 228 226 224 216 204 196 196 205 210 207 204 206 206 207 209 209 208 209 211 212 211 213 215 218 220 219 219 218 219 221 217 216 217 218 218 213 213 217 213 209 208 207 211 214 213 213 216 217 218 224
202 202 200 201 203 208 212 217 221 223 223 224 225 225 223 221 218 210 201 199 204 210 210 206 205 206 206 206 208 209 209 211 212 211 213 214 217 219 220 221 221 221 221 218 216 215 216 220 220 217 215 215 218 216 213 215 218 218 218 219 222 223 227
203 202 202 204 205 209 211 214 218 220 221 222 224 227 226 223 221 214 204 200 200 204 207 205 204 206 207 205 206 208 208 209 211 212 213 213 215 217 218 221 222 221 222 220 218 217 214 215 219 222 219 219 223 223 223 225 225 226 225 222 223 225 228
202 202 203 207 208 211 213 214 217 220 222 224 226 230 231 230 227 219 211 207 203 202 205 204 202 205 206 205 205 207 208 207 208 211 213 213 214 214 216 220 221 222 223 222 223 222 218 215 215 218 222 225 227 227 228 232 234 236 233 228 227 226 228
203 202 203 206 210 215 217 216 218 221 223 225 225 225 225 227 225 219 218 217 211 207 207 207 205 206 206 205 205 206 208 207 206 209 212 213 213 212 214 218 220 223 224 224 227 227 225 224 221 219 221 225 229 230 230 232 236 239 238 235 233 230 233
206 205 204 206 211 218 220 215 215 219 222 224 224 220 218 219 217 216 218 219 215 209 208 209 209 209 208 207 205 206 208 210 209 208 211 213 213 212 213 215 218 222 224 225 227 229 228 228 230 230 228 226 227 229 232 235 237 240 240 239 237 233 234
209 210 208 208 212 219 221 215 211 216 219 220 220 219 220 220 218 219 222 222 220 216 212 210 210 211 212 210 208 209 210 211 212 212 213 214 213 211 213 215 217 220 222 224 226 227 228 228 230 235 236 234 230 227 230 234 237 241 242 242 242 239 236
213 214 212 211 211 214 218 216 212 216 221 220 216 216 225 228 224 223 226 227 226 222 217 213 210 211 214 215 212 211 211 211 213 215 217 218 216 211 209 212 217 219 220 222 224 224 226 227 229 233 237 239 238 234 233 233 235 238 239 242 245 246 244
220 223 221 219 215 212 216 219 215 217 222 224 221 217 224 231 227 220 223 227 229 226 219 214 214 213 213 215 218 217 214 213 214 217 219 222 224 219 212 209 213 217 218 220 223 223 223 224 226 229 233 237 240 240 238 237 236 236 237 239 242 246 249
226 228 229 228 225 216 214 216 215 217 219 223 226 225 227 231 227 219 216 219 226 227 220 213 214 216 213 214 221 224 220 216 215 217 218 221 226 228 225 218 215 217 220 220 223 224 224 223 224 226 228 231 236 240 241 242 240 239 240 242 243 245 248
227 227 228 231 232 223 211 204 205 211 216 220 220 218 220 220 217 216 213 210 215 221 219 212 209 212 213 213 219 223 222 221 219 217 216 218 222 226 230 230 224 220 222 225 226 228 228 227 224 224 227 229 232 235 239 242 243 242 244 247 249 251 251
222 217 213 220 229 223 211 201 195 198 205 214 211 205 205 204 207 216 217 211 209 211 212 210 205 206 210 211 216 219 219 221 220 216 214 216 219 221 225 230 229 223 221 225 229 232 234 234 230 225 223 226 230 233 236 239 241 242 244 247 251 254 256
210 201 188 187 189 185 199 203 198 195 197 203 208 203 198 193 199 211 212 205 202 200 199 201 201 205 209 209 212 214 213 215 216 215 217 219 219 221 224 227 230 228 224 224 228 233 236 239 239 235 227 222 223 229 235 238 239 240 241 244 247 250 254
195 188 180 185 181 171 182 194 194 196 196 197 201 203 201 193 195 205 207 198 194 193 194 198 200 206 211 212 214 213 211 215 217 216 218 220 221 223 225 227 228 229 228 226 227 231 235 237 241 246 245 236 225 224 230 236 240 242 243 244 245 247 249
189 186 183 190 193 185 184 187 188 194 198 196 196 196 200 203 202 207 212 210 203 195 197 204 209 213 218 222 222 218 214 218 222 222 220 220 221 223 225 228 229 230 230 228 228 232 236 239 241 244 250 251 244 233 228 230 235 241 245 247 247 248 249
182 182 184 189 195 193 189 189 191 197 201 200 201 203 208 213 216 219 219 221 220 206 196 206 218 221 219 222 226 223 219 220 224 226 224 221 221 224 227 230 231 230 230 228 228 231 237 244 247 245 244 247 250 247 239 233 231 234 238 243 246 248 250
172 173 177 182 187 188 184 185 190 197 203 208 209 213 220 223 225 229 230 232 235 226 206 207 220 222 214 215 222 224 222 224 225 225 225 224 224 227 230 231 229 229 229 228 229 231 236 243 248 248 244 242 244 246 246 242 238 237 237 238 240 244 247
173 168 171 174 179 180 175 174 179 185 191 199 200 201 211 221 226 230 234 237 241 241 233 224 225 223 213 213 219 219 216 221 224 225 226 226 226 227 228 227 225 226 228 229 230 232 235 239 243 245 245 245 245 244 243 243 243 242 242 241 241 241 242
178 172 174 176 178 182 180 174 172 174 178 183 186 184 183 193 211 224 231 238 243 246 246 243 239 232 222 217 218 219 215 212 216 224 229 228 226 225 224 221 218 220 223 227 228 231 234 237 238 240 243 247 249 248 246 246 245 243 242 242 243 245 245
185 178 179 183 184 187 190 187 179 175 176 180 184 185 183 182 190 204 218 232 243 249 250 249 246 241 235 229 222 220 219 215 215 222 230 231 228 225 224 222 218 216 219 224 228 230 231 233 235 238 242 246 250 251 251 252 252 249 246 244 244 245 247
195 190 185 188 191 191 195 200 197 187 180 180 184 187 189 191 194 199 205 215 230 243 250 255 254 249 246 242 233 227 227 225 221 222 228 233 233 232 230 228 227 225 225 228 233 235 235 235 237 240 242 245 248 250 252 254 255 254 253 252 251 251 251
201 204 200 197 198 199 200 204 208 204 191 183 189 195 194 194 197 202 208 213 221 230 237 246 255 258 258 255 251 247 245 242 235 232 233 236 239 240 237 233 232 233 233 233 235 238 241 242 243 244 245 246 248 250 252 254 255 257 258 258 257 257 258
196 204 213 214 213 212 211 211 216 218 210 197 197 208 210 206 204 207 212 218 225 231 236 240 246 253 259 260 259 259 258 257 254 249 247 245 244 245 245 240 236 236 237 236 237 239 242 245 247 247 248 249 249 251 253 255 257 259 261 262 262 261 261
211 205 210 216 221 223 224 222 222 226 226 218 212 218 225 226 222 220 220 225 229 232 237 241 244 247 252 255 256 257 258 259 260 258 256 254 249 246 246 246 243 241 240 239 239 240 242 245 246 247 247 248 249 251 252 255 257 259 260 262 263 262 261
254 244 232 226 226 227 229 230 228 229 232 231 228 228 231 235 236 233 231 231 233 235 237 240 243 244 246 248 251 254 256 257 259 261 260 258 254 250 248 247 246 245 243 242 241 241 242 243 245 245 247 248 249 250 251 252 253 255 255 256 257 258 258
266 269 269 264 254 242 236 235 234 234 234 235 237 236 235 237 241 242 240 239 239 239 240 241 244 245 245 246 248 251 254 254 257 260 261 260 258 255 253 250 248 246 246 245 244 243 243 244 245 245 247 248 249 250 250 250 251 251 252 252 252 254 257
271 276 277 276 272 263 253 246 243 243 243 242 242 242 241 241 242 243 245 245 244 244 244 245 246 247 247 248 248 248 248 249 253 257 259 261 261 260 258 256 253 250 248 248 248 247 246 246 246 247 248 249 250 250 250 250 251 252 255 257 257 257 257
278 281 281 280 279 275 268 260 253 250 250 250 249 248 247 245 244 244 245 245 246 247 247 248 250 251 251 251 251 250 249 249 250 251 254 258 262 264 265 264 262 259 256 253 252 251 249 248 248 248 249 250 251 251 250 250 250 251 254 257 259 259 257
277 278 277 277 275 273 271 267 260 254 253 254 254 252 249 246 244 244 244 245 247 247 248 249 250 251 252 253 253 252 252 251 250 251 252 254 258 261 264 265 266 266 265 264 262 259 255 252 250 249 249 250 250 250 251 251 251 251 252 254 255 256 256
274 275 274 274 273 272 270 267 263 258 255 254 254 252 249 248 246 246 247 247 248 249 250 250 250 250 251 252 253 254 253 252 252 251 251 253 254 256 258 260 262 263 265 266 267 267 265 259 254 250 249 249 249 249 250 251 252 253 254 253 253 253 254
272 273 274 275 275 273 270 265 261 255 252 251 252 252 252 252 252 252 252 251 250 250 250 251 251 250 249 249 250 252 253 253 253 252 251 251 252 253 255 257 258 259 261 263 265 268 269 267 262 256 252 250 250 250 251 253 254 254 253 251 252 253 253
271 272 274 276 274 270 265 259 254 251 249 250 251 253 254 254 254 254 254 253 252 250 249 249 250 250 250 249 248 249 250 251 252 252 251 251 251 251 253 254 255 255 257 260 262 263 265 266 266 264 259 254 252 251 251 253 255 254 249 247 249 252 253
271 273 276 276 273 268 262 254 249 249 250 251 253 254 254 254 255 254 254 254 253 252 251 249 248 249 249 250 249 249 249 250 251 251 251 251 250 250 251 252 253 253 253 255 258 260 262 263 263 263 261 258 255 254 253 254 256 257 253 248 248 251 253
273 277 278 276 273 268 262 255 250 250 253 254 255 255 255 254 254 255 255 256 257 256 255 254 251 250 249 249 250 251 250 251 251 251 252 251 250 250 249 249 250 251 252 252 252 254 258 261 262 262 261 259 257 256 255 254 255 256 255 254 253 253 255
279 280 278 274 270 265 261 258 255 253 255 255 254 255 255 255 255 256 257 258 259 259 258 257 255 253 251 250 250 250 250 250 250 251 251 251 251 250 250 249 248 249 250 252 252 252 253 256 259 261 261 260 257 254 253 253 253 253 252 251 251 251 253
Height
3181 3183 3186 3188 3190 3192 3194 3195 3196 3198 3200 3201 3204 3207 3209 3211 3213 3215 3216 3218 3219 3221 3222 3223 3225 3226 3227 3228 3230 3231 3232 3234 3235 3237 3238 3239 3240 3241 3242 3243 3244 3244 3245 3246 3246 3247 3247 3248 3249 3249 3249 3250 3251 3251 3252 3252 3253 3254 3254 3255 3256 3256 3257
3180 3182 3184 3186 3189 3191 3192 3193 3195 3197 3198 3200 3202 3205 3207 3209 3212 3214 3215 3217 3218 3219 3221 3222 3224 3225 3226 3227 3229 3230 3231 3233 3234 3236 3237 3238 3240 3241 3242 3242 3243 3244 3245 3245 3246 3247 3247 3248 3249 3249 3250 3250 3251 3251 3252 3253 3253 3253 3254 3254 3255 3256 3257
3179 3181 3183 3185 3187 3189 3190 3191 3193 3195 3197 3198 3200 3202 3204 3207 3210 3212 3214 3215 3217 3219 3220 3221 3223 3224 3225 3226 3227 3229 3230 3231 3233 3234 3236 3238 3239 3240 3241 3242 3243 3243 3244 3245 3246 3246 3247 3248 3249 3249 3250 3250 3251 3251 3252 3252 3253 3254 3254 3254 3255 3256 3256
3178 3179 3181 3184 3185 3187 3189 3190 3191 3193 3195 3197 3198 3200 3202 3204 3207 3210 3212 3214 3216 3217 3218 3220 3221 3222 3224 3225 3226 3227 3228 3230 3231 3233 3235 3236 3238 3239 3240 3241 3242 3243 3244 3244 3245 3246 3247 3248 3249 3249 3250 3251 3251 3252 3252 3253 3253 3254 3254 3255 3255 3256 3256
3175 3176 3179 3181 3183 3185 3186 3188 3189 3190 3191 3193 3195 3196 3197 3199 3202 3206 3209 3212 3214 3215 3217 3218 3219 3220 3222 3223 3224 3226 3227 3228 3230 3231 3233 3235 3236 3238 3239 3240 3241 3242 3243 3244 3245 3245 3246 3247 3248 3249 3250 3251 3251 3252 3252 3253 3253 3254 3254 3255 3255 3256 3256
3172 3175 3177 3179 3181 3182 3182 3184 3185 3186 3189 3192 3193 3194 3196 3198 3201 3204 3206 3207 3209 3211 3213 3215 3217 3218 3220 3221 3223 3224 3226 3227 3228 3230 3231 3233 3234 3236 3238 3239 3240 3241 3242 3243 3244 3245 3246 3247 3248 3249 3250 3250 3251 3252 3252 3253 3253 3254 3254 3255 3255 3255 3256
3170 3173 3175 3177 3178 3178 3179 3180 3183 3185 3189 3191 3193 3196 3198 3199 3200 3203 3204 3206 3208 3209 3211 3213 3215 3217 3218 3220 3221 3223 3224 3226 3227 3228 3230 3231 3232 3234 3236 3237 3238 3240 3241 3242 3243 3244 3245 3246 3247 3248 3249 3250 3251 3251 3252 3252 3253 3253 3254 3254 3255 3255 3256
3167 3170 3173 3174 3175 3175 3177 3180 3183 3185 3186 3187 3191 3194 3195 3196 3198 3200 3202 3205 3209 3211 3212 3213 3214 3215 3217 3218 3219 3221 3223 3224 3225 3227 3228 3229 3230 3232 3234 3235 3237 3238 3239 3241 3242 3243 3244 3245 3246 3247 3248 3249 3250 3251 3251 3252 3253 3253 3254 3254 3255 3255 3255
3167 3169 3171 3172 3173 3174 3176 3179 3182 3182 3182 3185 3188 3190 3192 3193 3194 3197 3200 3203 3206 3209 3211 3212 3213 3214 3215 3216 3217 3219 3221 3222 3224 3225 3226 3227 3228 3230 3232 3233 3235 3236 3238 3239 3240 3242 3243 3244 3245 3246 3247 3248 3249 3250 3251 3251 3252 3253 3253 3254 3254 3254 3255
3166 3168 3170 3171 3172 3172 3174 3178 3181 3181 3181 3184 3186 3187 3189 3190 3192 3197 3200 3201 3202 3205 3208 3210 3211 3212 3213 3214 3215 3217 3218 3220 3222 3223 3225 3226 3227 3228 3230 3231 3233 3234 3236 3237 3238 3240 3241 3243 3244 3245 3246 3246 3248 3249 3250 3250 3251 3252 3252 3253 3253 3254 3254
3166 3167 3169 3170 3171 3172 3173 3176 3180 3181 3180 3181 3184 3186 3187 3189 3193 3197 3198 3198 3199 3201 3204 3207 3208 3209 3211 3212 3213 3214 3217 3219 3220 3221 3223 3224 3225 3226 3227 3229 3230 3232 3233 3235 3236 3237 3239 3240 3242 3243 3244 3245 3246 3247 3248 3249 3250 3250 3251 3252 3252 3253 3253
3166 3167 3168 3170 3171 3172 3172 3174 3177 3179 3178 3178 3181 3186 3188 3188 3190 3194 3195 3196 3196 3198 3201 3205 3205 3205 3207 3209 3210 3213 3215 3217 3218 3219 3221 3222 3224 3226 3226 3226 3228 3229 3231 3232 3234 3235 3236 3238 3239 3240 3242 3243 3245 3246 3247 3247 3248 3249 3250 3250 3251 3251 3252
3166 3167 3168 3169 3170 3171 3172 3173 3175 3177 3177 3178 3181 3186 3187 3186 3188 3191 3193 3194 3195 3195 3198 3200 3202 3203 3203 3205 3208 3210 3213 3214 3215 3217 3219 3221 3223 3225 3226 3226 3226 3227 3229 3230 3232 3233 3234 3235 3236 3238 3239 3241 3242 3244 3245 3246 3246 3247 3248 3249 3249 3250 3251
3165 3166 3167 3168 3169 3170 3171 3172 3174 3175 3176 3178 3182 3183 3183 3184 3186 3189 3190 3192 3193 3193 3194 3195 3197 3199 3200 3201 3204 3207 3209 3211 3212 3214 3217 3219 3220 3222 3224 3226 3226 3226 3227 3229 3230 3231 3232 3233 3234 3235 3236 3238 3239 3241 3242 3243 3244 3246 3246 3247 3248 3248 3249
3164 3166 3167 3168 3168 3169 3170 3172 3173 3175 3176 3178 3179 3180 3181 3183 3185 3185 3186 3188 3189 3189 3190 3191 3193 3195 3197 3199 3202 3205 3206 3208 3209 3211 3214 3216 3217 3219 3221 3223 3225 3225 3226 3227 3228 3230 3231 3232 3233 3233 3234 3235 3237 3238 3239 3241 3242 3243 3244 3245 3246 3246 3247
3164 3166 3168 3168 3169 3169 3170 3171 3173 3175 3176 3177 3178 3178 3180 3182 3183 3183 3183 3184 3186 3187 3187 3188 3190 3193 3195 3197 3199 3201 3203 3204 3206 3208 3211 3212 3214 3216 3218 3220 3222 3224 3224 3224 3226 3228 3229 3230 3231 3232 3232 3233 3234 3235 3236 3238 3239 3240 3241 3242 3243 3243 3244
3164 3166 3168 3168 3169 3169 3170 3171 3172 3173 3175 3177 3177 3178 3179 3180 3181 3181 3180 3181 3184 3185 3187 3188 3189 3190 3191 3193 3195 3196 3199 3201 3203 3205 3208 3210 3212 3214 3216 3217 3219 3221 3222 3222 3223 3225 3226 3228 3229 3230 3231 3232 3232 3233 3233 3235 3236 3237 3238 3239 3240 3240 3241
3165 3166 3167 3168 3168 3169 3169 3170 3171 3172 3174 3175 3176 3177 3178 3179 3179 3179 3179 3179 3181 3184 3187 3188 3188 3189 3191 3194 3194 3195 3196 3199 3201 3203 3205 3207 3209 3211 3212 3214 3216 3217 3218 3219 3220 3222 3223 3225 3226 3227 3229 3230 3230 3231 3231 3232 3233 3234 3235 3236 3236 3237 3237
3165 3166 3166 3167 3168 3168 3169 3170 3170 3171 3173 3174 3175 3176 3177 3177 3178 3177 3177 3178 3179 3181 3185 3187 3187 3188 3190 3193 3194 3195 3195 3197 3199 3201 3203 3204 3206 3208 3209 3211 3212 3214 3215 3216 3217 3218 3220 3221 3223 3224 3225 3226 3227 3228 3229 3230 3230 3231 3232 3232 3233 3234 3234
3165 3165 3166 3167 3168 3168 3169 3169 3170 3171 3171 3172 3174 3175 3176 3176 3177 3177 3177 3177 3177 3179 3182 3184 3185 3186 3188 3190 3192 3193 3193 3195 3197 3199 3201 3202 3204 3205 3207 3208 3209 3210 3211 3212 3213 3215 3216 3218 3219 3221 3222 3223 3223 3225 3226 3228 3228 3228 3229 3229 3230 3231 3231
3164 3165 3166 3166 3167 3168 3169 3169 3170 3170 3171 3171 3173 3174 3175 3175 3176 3176 3177 3177 3177 3178 3180 3182 3184 3186 3188 3190 3190 3191 3192 3194 3196 3197 3199 3200 3202 3203 3204 3205 3206 3207 3208 3209 3210 3211 3213 3214 3216 3217 3219 3220 3220 3222 3223 3224 3225 3225 3226 3226 3227 3227 3227
3164 3164 3165 3165 3166 3167 3168 3169 3170 3171 3171 3171 3172 3173 3174 3175 3175 3176 3176 3177 3177 3177 3179 3181 3182 3184 3186 3188 3188 3190 3192 3194 3195 3197 3197 3198 3198 3199 3200 3202 3203 3204 3205 3206 3207 3208 3209 3211 3212 3214 3215 3216 3217 3218 3220 3220 3221 3221 3222 3223 3223 3224 3224
3165 3164 3164 3165 3165 3166 3167 3168 3170 3171 3171 3172 3173 3173 3174 3174 3175 3175 3176 3176 3177 3177 3178 3179 3180 3182 3183 3185 3187 3189 3191 3193 3194 3195 3196 3195 3195 3195 3196 3198 3200 3201 3202 3203 3204 3205 3206 3208 3209 3210 3212 3213 3214 3215 3216 3216 3217 3218 3218 3219 3220 3221 3222
3165 3165 3165 3165 3165 3166 3166 3167 3168 3170 3172 3172 3173 3174 3174 3175 3175 3175 3176 3176 3176 3177 3177 3178 3178 3180 3181 3182 3184 3187 3189 3191 3193 3193 3194 3193 3192 3191 3193 3195 3197 3198 3198 3199 3200 3202 3203 3204 3206 3207 3208 3209 3210 3211 3212 3212 3213 3214 3215 3216 3216 3217 3218
3166 3166 3166 3166 3166 3167 3167 3167 3167 3169 3171 3172 3172 3173 3173 3174 3175 3175 3176 3176 3176 3177 3177 3177 3178 3178 3179 3180 3181 3183 3185 3187 3189 3189 3190 3189 3188 3187 3189 3193 3194 3195 3195 3196 3197 3198 3200 3201 3202 3204 3205 3206 3207 3207 3208 3208 3209 3210 3211 3212 3213 3213 3214
3166 3167 3167 3167 3167 3167 3167 3168 3168 3168 3170 3171 3171 3171 3172 3173 3174 3175 3175 3176 3176 3176 3177 3177 3178 3178 3179 3179 3180 3181 3182 3183 3184 3185 3185 3185 3185 3184 3185 3188 3190 3191 3191 3192 3193 3195 3196 3198 3199 3200 3201 3202 3203 3204 3205 3205 3206 3207 3208 3208 3209 3210 3211
3165 3166 3167 3167 3168 3168 3168 3168 3168 3168 3169 3170 3171 3171 3171 3172 3173 3174 3175 3175 3175 3176 3177 3177 3178 3178 3178 3179 3179 3180 3181 3181 3181 3181 3181 3181 3182 3182 3183 3183 3185 3186 3187 3188 3190 3191 3193 3194 3195 3197 3198 3198 3199 3200 3201 3202 3203 3204 3204 3205 3205 3206 3207
3163 3164 3166 3167 3168 3168 3168 3168 3168 3168 3168 3169 3170 3170 3170 3170 3171 3172 3173 3174 3174 3175 3176 3176 3177 3177 3178 3178 3178 3179 3179 3180 3180 3180 3179 3179 3179 3180 3180 3180 3181 3182 3183 3185 3186 3187 3189 3190 3191 3192 3193 3194 3195 3196 3197 3199 3199 3199 3200 3200 3201 3202 3203
3161 3162 3163 3165 3166 3167 3167 3167 3167 3167 3167 3168 3168 3168 3169 3169 3169 3170 3171 3172 3173 3174 3174 3175 3175 3176 3176 3177 3177 3178 3178 3178 3178 3178 3177 3177 3177 3177 3177 3178 3178 3179 3180 3181 3182 3183 3184 3186 3187 3188 3189 3189 3190 3192 3194 3195 3195 3194 3194 3194 3196 3197 3199
3160 3160 3160 3161 3163 3164 3165 3166 3166 3166 3166 3166 3166 3166 3167 3168 3168 3168 3169 3170 3171 3172 3172 3173 3173 3173 3174 3175 3176 3176 3176 3176 3176 3176 3175 3175 3175 3175 3175 3175 3176 3176 3177 3177 3178 3179 3180 3181 3182 3183 3184 3184 3186 3188 3189 3190 3191 3190 3190 3190 3191 3193 3194
3157 3157 3157 3158 3159 3160 3161 3162 3163 3163 3163 3164 3163 3163 3164 3165 3166 3166 3166 3167 3168 3169 3170 3170 3170 3171 3171 3172 3173 3173 3174 3174 3174 3174 3174 3173 3173 3173 3173 3173 3174 3174 3174 3175 3175 3175 3176 3176 3177 3178 3178 3179 3181 3183 3184 3185 3185 3185 3185 3185 3187 3188 3189
3154 3154 3154 3154 3155 3155 3155 3156 3157 3158 3159 3159 3160 3160 3160 3161 3162 3162 3163 3164 3165 3166 3167 3167 3168 3168 3169 3169 3169 3170 3171 3171 3172 3172 3172 3172 3172 3171 3171 3171 3171 3171 3172 3172 3172 3172 3172 3172 3173 3173 3173 3174 3175 3177 3178 3179 3179 3179 3180 3181 3181 3182 3183
3151 3150 3150 3150 3151 3151 3150 3151 3152 3153 3154 3155 3155 3155 3155 3157 3158 3159 3160 3161 3162 3162 3163 3164 3164 3165 3165 3166 3166 3166 3166 3167 3168 3169 3169 3170 3170 3169 3169 3169 3169 3169 3169 3169 3168 3168 3168 3169 3169 3169 3169 3170 3170 3172 3173 3174 3174 3175 3176 3177 3177 3177 3178
3146 3146 3146 3147 3147 3147 3147 3146 3147 3148 3149 3150 3150 3151 3152 3153 3154 3155 3156 3157 3158 3158 3159 3159 3160 3161 3161 3162 3162 3162 3162 3163 3164 3165 3166 3166 3166 3166 3166 3166 3166 3166 3166 3166 3166 3165 3165 3165 3165 3165 3166 3166 3167 3168 3169 3170 3170 3171 3172 3173 3173 3173 3173
3142 3143 3143 3144 3144 3143 3143 3143 3143 3143 3144 3145 3147 3148 3149 3149 3150 3150 3151 3152 3152 3153 3154 3154 3155 3155 3156 3157 3158 3158 3158 3159 3159 3160 3161 3162 3162 3163 3163 3163 3163 3163 3163 3163 3163 3163 3162 3162 3162 3162 3163 3163 3164 3164 3165 3166 3166 3167 3168 3168 3168 3168 3168
3139 3140 3140 3140 3140 3139 3139 3139 3139 3139 3140 3141 3143 3144 3145 3145 3145 3146 3146 3147 3147 3148 3149 3150 3150 3151 3151 3152 3153 3154 3154 3155 3155 3155 3156 3157 3158 3158 3159 3159 3159 3159 3160 3160 3160 3159 3159 3159 3160 3160 3160 3160 3160 3161 3161 3162 3162 3163 3164 3164 3164 3164 3164
3137 3137 3136 3136 3136 3135 3135 3135 3136 3136 3137 3138 3139 3140 3140 3141 3141 3141 3142 3142 3143 3143 3144 3145 3146 3147 3147 3148 3148 3149 3150 3150 3150 3151 3151 3152 3152 3153 3153 3154 3154 3154 3155 3155 3156 3156 3156 3156 3156 3156 3157 3157 3158 3158 3158 3158 3158 3159 3160 3160 3160 3161 3161
3134 3134 3133 3132 3132 3132 3132 3132 3133 3134 3134 3134 3135 3135 3136 3136 3137 3137 3138 3138 3139 3139 3140 3141 3141 3142 3143 3144 3144 3145 3145 3145 3145 3146 3146 3146 3147 3147 3147 3148 3149 3150 3151 3151 3152 3152 3153 3153 3153 3153 3153 3154 3155 3155 3155 3155 3155 3155 3156 3156 3156 3157 3157